CAPE
0 0 17 43 70 0 0 0 0 0 0 1 0 0 0 0 1 14 18 9 0 62 246 262 133 38 0 0 30 18 16 29 51 33 35 41 4 0 0 0 2 3 0 7 17 7 16 8 3
0 1 102 118 42 62 15 0 0 0 0 0 0 0 4 118 42 55 118 4 10 169 451 321 120 17 2 3 6 21 12 16 38 49 36 15 0 0 0 0 4 5 3 9 12 11 3 0 0
0 0 120 86 71 55 62 0 0 0 0 0 0 0 28 175 189 141 73 46 32 481 430 331 126 57 2 5 5 0 12 16 18 25 28 27 19 0 0 9 11 9 5 6 10 5 0 3 0
0 61 0 2 52 69 35 4 0 0 0 0 0 0 0 159 150 72 65 40 99 481 423 264 123 72 2 4 0 0 0 0 12 15 25 23 17 1 8 12 11 10 5 10 10 9 19 41 8
0 1 0 5 7 15 0 2 0 0 0 0 0 0 0 3 39 106 62 62 147 416 418 203 109 61 12 4 0 4 4 5 2 11 27 25 15 9 18 13 8 7 9 7 9 30 32 32 13
0 0 8 3 3 1 0 0 0 0 0 0 0 0 0 0 0 86 116 107 183 310 365 212 83 34 0 0 1 0 9 6 12 12 18 13 5 4 17 4 3 9 20 24 12 19 31 21 13
0 0 0 0 2 8 7 0 0 0 0 0 0 0 8 0 0 49 201 192 248 334 336 195 113 33 0 0 0 0 3 10 12 11 9 12 7 11 23 7 0 8 17 26 16 7 14 15 9
0 0 0 1 0 0 0 0 0 0 0 0 0 8 2 0 0 5 164 237 258 326 249 222 134 39 6 6 0 0 2 6 14 11 21 21 24 17 6 0 6 33 21 27 10 8 7 6 0
0 0 0 0 0 0 0 0 0 0 0 0 0 0 0 0 0 0 0 128 168 219 230 220 160 63 19 9 0 3 2 1 12 19 12 21 21 9 3 0 0 25 22 20 10 0 0 0 0
0 0 0 0 0 0 0 0 0 0 0 0 0 0 0 0 0 0 0 0 59 184 236 222 243 103 32 1 3 10 10 11 9 15 17 22 12 2 10 0 5 25 24 13 1 10 0 0 0
0 0 0 0 0 0 0 0 0 0 0 0 0 0 0 0 0 0 0 0 0 1 152 219 275 242 96 40 0 12 16 9 20 14 16 18 0 6 17 27 39 31 17 21 6 0 0 29 21
0 0 0 0 0 0 0 0 0 0 0 0 0 0 0 0 0 0 0 0 0 0 25 120 196 286 264 151 8 0 9 8 10 23 17 11 6 9 25 32 39 30 26 10 2 5 18 12 14
0 0 0 0 0 0 0 0 0 0 0 0 0 0 0 0 0 0 0 0 0 0 0 73 208 199 332 245 117 9 0 11 4 14 34 14 8 13 24 15 18 40 29 3 2 4 3 7 6
0 0 0 0 0 0 0 0 0 0 0 0 0 0 0 0 0 0 0 0 0 0 0 0 130 199 267 293 213 72 32 3 7 11 15 18 12 11 19 14 31 24 11 0 0 0 1 2 0
0 0 0 0 0 0 0 0 0 0 0 0 0 0 0 0 0 0 0 0 0 0 0 0 0 69 230 309 307 163 50 29 30 0 11 9 9 3 15 12 30 12 0 0 0 1 1 0 0
0 0 0 0 0 0 0 0 0 0 0 0 0 0 0 0 0 0 0 0 0 0 0 0 0 0 35 219 328 198 186 69 31 21 0 0 3 5 20 17 13 0 1 0 0 0 0 0 0
0 0 0 0 0 0 0 0 0 0 0 0 0 0 0 0 0 0 0 0 0 0 0 0 0 0 0 151 270 318 185 103 43 16 2 0 0 3 14 24 3 0 0 0 0 0 0 0 0
0 0 0 0 0 0 0 0 0 0 0 0 0 0 0 0 0 0 0 0 0 0 0 0 0 0 0 0 158 281 297 119 50 20 0 1 1 0 2 16 0 0 0 0 0 0 0 0 0
0 0 0 0 0 0 0 0 0 0 0 0 0 0 0 0 0 0 0 0 0 0 0 0 0 0 0 0 5 95 159 209 114 24 2 0 3 2 2 3 0 0 0 0 0 0 0 0 0
0 0 0 0 0 0 0 0 0 0 0 0 0 0 0 0 0 0 0 0 0 0 0 0 0 0 0 0 0 0 105 159 152 47 13 16 5 3 3 1 1 0 0 0 0 0 0 0 0
0 0 0 0 0 0 0 0 0 0 0 0 0 0 0 0 0 0 0 0 0 0 0 0 0 0 0 0 0 0 0 59 135 91 22 12 17 2 13 2 1 0 0 1 0 0 0 0 0
0 0 0 0 0 0 0 0 0 0 0 0 0 0 0 0 0 0 0 0 0 0 0 0 0 0 0 0 0 0 0 0 32 105 21 4 11 2 1 1 1 1 0 0 0 0 0 0 0
0 0 0 0 0 0 0 0 0 0 0 0 0 0 0 0 0 0 0 0 0 0 0 0 0 0 0 0 0 0 0 0 0 73 16 1 1 1 1 1 1 1 0 0 0 0 0 0 0
0 0 0 0 0 0 0 0 0 0 0 0 0 0 1 0 5 1 0 0 0 0 0 0 0 0 0 0 0 0 0 0 0 9 3 4 1 1 2 1 1 1 1 1 0 0 0 0 0
0 0 0 0 0 0 0 0 0 0 0 0 0 0 3 3 2 1 0 0 0 1 0 1 0 0 0 0 0 0 0 0 0 0 40 51 2 1 1 1 2 2 1 1 1 1 2 1 2
0 0 0 0 0 0 0 0 0 0 0 0 0 1 0 1 0 0 2 3 1 2 2 2 1 1 0 0 0 0 0 0 0 9 53 15 21 1 1 1 2 1 1 2 1 3 2 2 3
0 0 0 0 0 0 0 0 0 0 0 0 0 0 6 5 4 4 3 4 4 4 3 2 2 1 0 2 0 0 0 0 0 1 0 0 0 0 0 1 1 1 3 3 2 1 1 2 2
0 0 0 0 0 0 0 0 0 0 0 0 0 4 7 7 6 4 4 2 3 5 5 4 6 6 3 1 0 1 0 0 0 4 0 0 1 0 0 0 0 0 0 0 0 0 1 2 2
0 0 0 0 0 0 0 0 0 0 0 0 0 2 4 6 6 2 3 2 3 4 3 2 4 3 5 2 0 3 2 0 1 0 0 1 0 3 1 1 1 1 0 1 1 4 3 2 0
0 0 0 0 0 0 0 0 0 0 0 0 0 2 2 5 4 0 2 2 2 2 1 1 1 1 3 1 1 0 0 0 0 0 2 4 3 3 3 3 4 3 4 3 2 2 1 1 2
CIN
-0 -0 -100 -61 -3 -0 -0 -0 -0 -0 -0 -1 -0 -0 -0 -0 -5 -7 -240 -202 -0 -224 -164 -113 -118 -152 -0 -0 -80 -99 -1 -0 -63 -23 -0 -0 -0 -0 -0 -0 -3 -4 -0 -1 -1 -1 -2 -4 -5
-0 -18 -45 -10 -6 -2 -7 -0 -0 -0 -0 -0 -0 -0 -7 -4 -22 -51 -119 -244 -199 -173 -134 -107 -128 -76 -1 -0 -1 -75 -1 -1 -12 -36 -0 -0 -0 -0 -0 -0 -5 -3 -0 -0 -0 -0 -0 -0 -0
-0 -5 -12 -6 -15 -6 -6 -0 -0 -0 -0 -0 -0 -0 -8 -4 -15 -62 -181 -234 -211 -89 -121 -96 -123 -140 -2 -0 -1 -0 -0 -2 -1 -1 -2 -1 -0 -0 -0 -4 -4 -3 -0 -0 -0 -0 -0 -0 -0
-0 -44 -64 -12 -9 -2 -5 -4 -0 -0 -0 -0 -0 -0 -0 -100 -82 -167 -196 -229 -176 -87 -79 -109 -125 -137 -3 -1 -0 -0 -0 -0 -1 -2 -0 -0 -0 -0 -4 -5 -5 -5 -0 -1 -0 -0 -8 -3 -6
-0 -78 -0 -25 -51 -48 -0 -18 -0 -0 -0 -0 -0 -0 -0 -10 -120 -137 -168 -179 -114 -84 -56 -100 -138 -116 -177 -0 -0 -0 -1 -2 -3 -2 -3 -1 -1 -2 -3 -5 -8 -0 -0 -1 -0 -3 -2 -5 -10
-0 -0 -3 -21 -3 -5 -0 -0 -0 -0 -0 -0 -0 -0 -0 -0 -0 -138 -145 -146 -83 -76 -54 -102 -128 -133 -0 -0 -0 -0 -1 -2 -2 -3 -3 -1 -4 -4 -2 -7 -3 -2 -4 -5 -3 -10 -6 -10 -14
-0 -1 -0 -0 -1 -1 -2 -0 -0 -0 -0 -0 -0 -0 -9 -0 -0 -145 -85 -83 -60 -58 -35 -75 -115 -131 -0 -0 -0 -0 -4 -2 -3 -4 -4 -2 -5 -5 -2 -11 -0 -2 -5 -5 -4 -11 -9 -11 -16
-0 -0 -0 -1 -0 -0 -0 -0 -0 -0 -0 -0 -0 -16 -23 -0 -0 -73 -85 -43 -39 -52 -44 -46 -79 -129 -29 -0 -0 -0 -3 -3 -4 -4 -5 -5 -4 -6 -13 -0 -7 -1 -7 -6 -12 -8 -11 -16 -0
-0 -0 -0 -0 -0 -0 -0 -0 -0 -0 -0 -0 -0 -0 -0 -0 -0 -0 -0 -77 -43 -44 -47 -38 -50 -79 -124 -0 -0 -3 -4 -6 -4 -7 -10 -10 -4 -5 -12 -0 -0 -1 -6 -10 -12 -0 -0 -0 -0
-0 -0 -0 -0 -0 -0 -0 -0 -0 -0 -0 -0 -0 -0 -0 -0 -0 -0 -0 -0 -103 -27 -28 -23 -19 -68 -98 -1 -1 -0 -1 -1 -5 -7 -9 -7 -12 -10 -0 -0 -3 -1 -10 -15 -2 -2 -1 -0 -0
-0 -0 -0 -0 -0 -0 -0 -0 -0 -0 -0 -0 -0 -0 -0 -0 -0 -0 -0 -0 -0 -7 -39 -30 -8 -14 -30 -57 -1 -0 -0 -0 -6 -5 -9 -7 -0 -4 -2 -3 -4 -4 -9 -0 -2 -1 -1 -2 -1
-0 -0 -0 -0 -0 -0 -0 -0 -0 -0 -0 -0 -0 -0 -0 -0 -0 -0 -0 -0 -0 -0 -75 -28 -16 -1 -2 -2 -98 -4 -0 -1 -1 -0 -3 -14 -13 -1 -3 -12 -1 -1 -1 -0 -0 -0 -3 -8 -4
-0 -0 -0 -0 -0 -0 -0 -0 -0 -0 -0 -0 -0 -0 -0 -0 -0 -0 -0 -0 -0 -0 -0 -22 -1 -4 -1 -4 -4 -83 -0 -0 -1 -0 -0 -12 -15 -4 -5 -17 -2 -0 -0 -16 -1 -6 -12 -8 -10
-0 -0 -0 -0 -0 -0 -0 -0 -0 -0 -0 -0 -0 -0 -0 -0 -0 -0 -0 -0 -0 -0 -0 -0 -4 -3 -0 -0 -6 -28 -76 -67 -5 -1 -1 -6 -10 -4 -4 -17 -1 -1 -4 -6 -2 -0 -1 -1 -0
-0 -0 -0 -0 -0 -0 -0 -0 -0 -0 -0 -0 -0 -0 -0 -0 -0 -0 -0 -0 -0 -0 -0 -0 -0 -1 -0 -0 -0 -4 -58 -60 -73 -2 -1 -8 -4 -2 -3 -16 -25 -2 -0 -0 -0 -2 -0 -0 -0
-0 -0 -0 -0 -0 -0 -0 -0 -0 -0 -0 -0 -0 -0 -0 -0 -0 -0 -0 -0 -0 -0 -0 -0 -0 -0 -2 -0 -5 -4 -4 -47 -51 -56 -0 -0 -2 -1 -2 -22 -19 -0 -9 -0 -0 -0 -0 -0 -0
-0 -0 -0 -0 -0 -0 -0 -0 -0 -0 -0 -0 -0 -0 -0 -0 -0 -0 -0 -0 -0 -0 -0 -0 -0 -0 -0 -0 -0 -0 -4 -15 -55 -45 -50 -0 -0 -1 -1 -0 -0 -0 -0 -0 -0 -0 -0 -0 -0
-0 -0 -0 -0 -0 -0 -0 -0 -0 -0 -0 -0 -0 -0 -0 -0 -0 -0 -0 -0 -0 -0 -0 -0 -0 -0 -0 -1 -0 -0 -0 -32 -12 -4 -0 -73 -39 -0 -28 -4 -0 -0 -0 -0 -0 -0 -0 -0 -0
-0 -0 -0 -0 -0 -0 -0 -0 -0 -0 -0 -0 -0 -0 -0 -0 -0 -0 -0 -0 -0 -0 -0 -0 -0 -0 -0 -0 -11 -1 -0 -0 -0 -19 -55 -0 -15 -0 -47 -0 -0 -0 -0 -0 -0 -0 -0 -0 -0
-0 -0 -0 -0 -0 -0 -0 -0 -0 -0 -0 -0 -0 -0 -0 -0 -0 -0 -0 -0 -0 -0 -0 -0 -0 -0 -0 -0 -0 -0 -20 -0 -1 -37 -54 -18 -21 -0 -0 -0 -0 -0 -0 -0 -0 -0 -0 -0 -0
-0 -0 -0 -0 -0 -0 -0 -0 -0 -0 -0 -0 -0 -0 -0 -0 -0 -0 -0 -0 -0 -0 -0 -0 -0 -0 -0 -0 -0 -0 -0 -17 -10 -0 -15 -76 -43 -23 -43 -0 -0 -0 -0 -0 -0 -0 -0 -0 -0
-0 -0 -0 -0 -0 -0 -0 -0 -0 -0 -0 -0 -0 -0 -0 -0 -0 -0 -0 -0 -0 -0 -0 -0 -0 -0 -0 -0 -0 -0 -0 -0 -1 -2 -15 -66 -72 -12 -0 -0 -0 -0 -0 -0 -0 -0 -0 -0 -0
-0 -0 -0 -0 -0 -0 -0 -0 -0 -0 -0 -0 -0 -0 -0 -0 -2 -1 -0 -0 -0 -0 -0 -0 -0 -0 -0 -0 -0 -0 -0 -0 -0 -3 -7 -1 -0 -0 -0 -0 -0 -0 -0 -0 -0 -0 -0 -0 -0
-0 -0 -0 -0 -0 -0 -0 -0 -0 -0 -0 -0 -0 -0 -1 -0 -2 -1 -0 -0 -0 -0 -0 -0 -0 -0 -0 -0 -0 -0 -0 -0 -0 -0 -1 -4 -0 -0 -0 -0 -0 -0 -0 -0 -0 -0 -0 -0 -0
-0 -0 -0 -0 -0 -0 -0 -0 -0 -0 -0 -0 -0 -0 -1 -2 -2 -2 -1 -0 -0 -0 -0 -0 -0 -0 -0 -0 -0 -0 -0 -0 -0 -0 -2 -17 -19 -0 -0 -0 -0 -0 -0 -0 -0 -0 -0 -0 -0
-0 -0 -0 -0 -0 -0 -0 -0 -0 -0 -0 -0 -0 -1 -0 -3 -4 -0 -1 -1 -1 -1 -1 -3 -1 -0 -0 -0 -0 -0 -0 -0 -0 -86 -5 -27 -35 -51 -0 -0 -0 -0 -0 -0 -0 -0 -0 -0 -0
-0 -0 -0 -0 -0 -0 -0 -0 -0 -0 -0 -0 -0 -0 -0 -0 -0 -0 -1 -0 -0 -0 -0 -0 -2 -0 -0 -0 -0 -0 -0 -0 -0 -1 -0 -0 -0 -21 -0 -0 -0 -0 -0 -0 -0 -0 -0 -0 -0
-0 -0 -0 -0 -0 -0 -0 -0 -0 -0 -0 -0 -0 -0 -0 -0 -0 -0 -0 -0 -1 -0 -0 -0 -0 -0 -1 -0 -1 -0 -0 -0 -0 -6 -6 -0 -0 -0 -0 -0 -0 -0 -0 -0 -0 -0 -0 -0 -0
-0 -0 -0 -0 -0 -0 -0 -0 -0 -0 -0 -0 -0 -0 -0 -0 -0 -0 -0 -0 -0 -0 -0 -0 -0 -0 -1 -0 -0 -0 -0 -0 -0 -0 -0 -0 -0 -0 -0 -0 -0 -0 -0 -0 -0 -0 -0 -0 -0
-0 -0 -0 -0 -0 -0 -0 -0 -0 -0 -0 -0 -0 -0 -0 -0 -0 -0 -0 -0 -0 -0 -0 -0 -0 -0 -0 -3 -1 -0 -0 -0 -0 -0 -0 -0 -0 -0 -0 -0 -0 -0 -0 -0 -0 -0 -0 -0 -0
Wind_Speed
25 24 20 21 23 25 28 28 27 24 23 18 21 23 25 27 26 23 19 17 14 6 6 8 7 7 6 4 3 2 3 2 1 2 4 6 5 5 4 3 4 5 6 6 6 6 6 8 8
24 22 18 23 25 27 26 24 26 26 23 25 27 27 26 26 20 21 21 15 14 5 4 5 5 5 5 4 4 4 4 4 2 2 4 5 4 4 4 4 4 4 5 5 6 6 6 7 7
21 19 21 23 27 30 27 21 24 21 21 22 22 22 25 22 21 21 21 16 12 7 2 2 3 4 4 5 5 6 6 6 5 3 2 2 2 2 3 3 4 4 4 5 6 6 6 6 7
19 20 20 25 29 28 27 25 21 25 24 20 23 26 21 19 23 26 24 15 9 8 5 1 2 4 6 7 7 6 7 7 7 6 4 2 2 1 1 4 4 4 4 4 5 6 5 6 6
11 21 27 24 27 27 26 25 27 29 28 26 27 26 24 21 24 24 21 18 12 8 8 4 3 4 5 8 8 8 9 9 8 8 6 4 3 1 1 3 4 3 5 5 4 4 5 6 6
14 16 14 21 28 21 17 25 28 28 27 26 25 25 24 21 25 25 23 19 16 11 10 6 6 6 6 6 7 9 11 10 9 8 7 6 4 3 2 3 2 4 4 4 4 4 4 5 6
12 11 10 25 27 27 27 24 26 27 30 25 26 29 24 25 28 27 24 22 19 12 13 10 8 8 8 8 9 8 8 11 8 9 8 7 5 4 3 2 3 4 4 3 2 3 4 5 5
10 9 9 9 12 21 20 24 21 24 27 28 21 24 26 29 28 28 26 25 22 16 18 14 12 10 11 11 12 11 10 9 11 9 9 7 7 5 3 3 4 3 3 1 1 2 3 4 5
9 6 4 2 3 11 21 26 22 25 31 24 24 25 27 29 31 33 30 29 27 25 22 21 16 15 14 14 13 16 13 11 12 12 10 10 9 7 5 6 6 4 3 1 1 2 2 3 3
8 5 8 20 19 21 26 28 31 33 33 35 35 29 27 36 35 35 34 35 33 30 26 25 22 18 16 17 15 16 15 16 13 14 13 11 11 8 7 7 8 5 3 1 1 1 1 2 2
12 11 20 18 21 23 26 29 28 26 27 29 33 36 36 38 39 38 36 34 36 35 33 27 26 22 20 20 19 18 18 17 17 15 14 13 12 12 9 10 8 6 3 1 2 1 1 2 2
14 15 19 21 23 25 25 28 26 25 26 31 30 32 33 35 37 38 39 38 36 35 34 33 32 30 25 24 22 21 22 19 20 19 17 16 16 14 13 12 10 8 6 3 2 2 4 3 2
15 19 20 20 22 25 26 27 31 33 31 29 26 28 33 37 38 39 40 40 40 39 37 31 30 34 33 29 27 24 23 24 21 22 20 19 17 17 16 15 13 10 7 6 4 3 4 4 3
19 19 18 22 22 28 29 34 32 28 29 28 30 38 39 39 39 39 39 40 40 40 40 37 34 31 34 34 31 27 26 25 24 23 23 22 20 19 18 18 15 13 9 8 6 4 3 3 4
21 22 20 19 28 31 35 36 27 28 31 34 36 37 38 38 38 38 38 39 40 42 42 42 41 37 33 34 36 34 29 29 28 27 24 24 23 22 19 19 17 15 12 9 7 6 5 4 5
25 21 31 26 30 29 34 38 35 37 39 40 38 37 37 36 34 33 35 36 37 39 42 43 43 44 41 36 35 35 37 33 32 30 27 25 25 24 22 22 20 16 14 12 11 9 7 7 6
25 33 33 35 31 35 33 44 40 43 40 39 37 36 34 33 33 32 34 36 37 38 39 42 43 46 46 43 41 37 36 37 37 34 30 28 27 25 23 23 22 19 18 15 14 12 10 9 7
35 35 34 39 36 42 44 49 47 42 38 38 34 32 31 31 32 33 35 37 38 39 39 40 42 44 47 45 45 43 41 37 37 43 33 30 30 28 26 23 22 21 20 18 15 14 11 11 9
31 35 41 42 43 45 44 51 46 40 33 31 30 29 29 30 31 32 34 37 40 41 42 42 42 44 46 48 47 49 46 43 42 38 36 33 32 30 29 26 25 23 23 20 18 17 15 13 10
33 38 41 39 46 45 45 47 40 29 26 27 29 28 26 28 32 35 37 40 43 44 44 44 43 44 45 47 49 45 47 45 43 36 36 35 32 29 31 29 27 26 24 23 21 20 18 18 15
36 34 42 44 49 39 36 35 26 26 20 23 23 24 28 30 36 41 43 47 48 48 48 47 47 46 46 48 50 52 52 47 42 47 43 38 36 32 32 30 29 29 27 26 24 23 22 21 20
37 34 39 39 40 34 31 33 33 22 21 26 27 26 26 32 38 41 49 55 55 53 48 49 48 50 49 48 50 53 55 56 44 46 46 38 34 36 34 30 29 30 29 28 27 25 24 22 22
31 35 32 29 28 28 23 21 19 15 23 32 37 29 28 35 43 48 53 56 55 48 48 47 52 53 52 51 51 52 55 55 55 48 44 39 37 34 32 31 30 32 30 28 29 26 24 23 23
28 31 27 20 22 26 19 20 20 24 32 41 44 42 43 49 51 54 55 54 53 51 55 51 50 51 51 51 51 52 55 55 54 46 32 37 37 33 32 34 33 33 32 31 28 28 28 26 24
33 36 35 29 27 28 22 20 18 26 32 33 42 52 50 54 46 49 53 54 50 50 49 51 51 50 49 51 50 51 51 53 56 52 40 36 35 36 36 27 35 31 30 31 29 28 30 29 26
29 29 31 31 29 24 19 19 26 31 29 29 43 40 48 48 50 57 51 49 47 50 46 48 50 50 48 49 50 48 48 49 51 49 41 31 31 33 29 29 31 31 27 26 25 26 22 26 23
26 27 23 22 20 24 24 30 23 25 32 38 46 53 52 48 53 55 52 45 47 47 48 47 47 48 46 46 47 47 46 47 48 47 41 35 32 33 21 24 28 25 25 23 24 23 23 22 19
22 22 24 22 29 25 26 34 30 39 44 49 60 60 53 47 49 46 48 48 46 46 47 44 43 44 43 45 45 44 43 43 44 42 41 31 33 32 25 21 24 20 17 20 16 20 18 19 16
23 22 19 19 20 24 28 34 31 30 42 50 57 50 50 46 37 43 44 40 32 43 40 39 39 39 39 40 40 40 40 39 38 35 34 32 28 24 26 24 20 15 18 16 15 15 17 15 16
18 18 16 21 24 23 23 25 22 33 43 44 43 44 44 47 35 37 34 23 26 31 34 35 33 33 34 35 35 34 32 29 27 28 29 27 25 23 20 18 16 18 15 17 16 12 11 12 10
Wind_Direction
302 301 299 283 274 272 271 263 269 274 277 285 285 282 282 284 278 286 302 302 314 16 58 126 137 140 147 160 188 187 229 238 174 105 85 93 85 72 49 34 29 14 17 31 20 11 19 32 36
293 299 293 272 269 268 274 268 270 271 283 286 279 276 280 281 302 302 304 314 308 355 39 117 152 155 162 192 228 235 238 238 233 141 115 106 94 78 54 31 3 10 25 31 34 34 37 39 39
291 292 276 268 264 264 271 280 274 285 290 290 286 292 286 290 303 303 312 313 315 317 10 93 172 206 218 238 249 247 248 243 238 227 165 128 104 85 64 57 47 31 24 50 51 54 50 43 46
265 251 277 263 262 266 275 277 288 288 292 299 292 285 297 310 301 304 310 320 314 308 299 293 187 220 248 254 259 253 247 249 245 236 222 197 156 108 57 91 63 59 49 54 62 60 37 45 45
94 273 243 270 276 281 282 282 287 289 289 291 291 285 291 308 311 310 309 311 300 308 294 275 235 233 235 257 261 260 255 250 246 244 232 196 212 201 142 109 94 71 86 80 75 352 351 53 48
123 128 292 233 251 288 312 294 289 290 293 296 294 291 292 311 312 312 306 305 295 296 287 279 255 242 244 246 256 259 262 251 249 242 244 238 228 214 203 134 100 112 106 95 93 348 24 31 31
151 155 169 241 257 251 283 304 295 297 293 300 305 288 293 302 306 308 307 301 292 296 287 280 262 251 250 253 257 249 248 257 245 246 243 240 236 226 211 171 143 138 123 109 89 4 34 20 16
142 155 187 181 202 243 323 314 326 314 301 304 319 300 293 295 302 303 302 298 294 289 285 282 270 258 256 260 255 255 252 242 249 241 244 240 239 231 196 224 218 184 143 136 7 349 4 21 26
101 106 115 146 188 346 335 317 321 313 299 308 309 305 306 306 304 294 293 290 291 285 282 278 270 262 262 261 253 260 251 244 246 247 244 246 246 232 238 237 227 197 180 165 341 320 338 2 11
92 62 14 341 338 331 322 319 311 308 302 296 296 303 304 298 298 297 291 287 284 283 281 276 272 263 260 262 257 255 252 251 243 246 248 245 247 236 252 227 242 209 197 184 15 17 44 62 26
30 18 352 353 340 334 328 322 322 319 314 311 305 301 302 298 295 293 293 292 287 282 278 276 269 263 258 259 259 255 252 251 247 240 241 241 242 254 242 247 243 217 195 242 295 338 91 322 343
17 4 351 345 340 337 333 329 327 320 316 313 314 311 309 307 302 297 293 291 290 289 282 275 268 262 258 256 254 252 252 248 250 247 238 237 242 248 244 242 232 228 230 207 244 267 298 317 332
13 359 353 348 344 339 335 330 322 316 316 318 318 315 311 306 305 301 296 292 288 284 284 279 272 265 258 253 254 250 247 250 245 246 240 238 233 244 244 235 237 238 226 221 232 260 278 292 318
3 356 353 346 342 336 332 326 324 327 325 319 316 311 310 308 306 303 301 295 290 286 281 282 275 269 262 256 248 248 249 246 245 244 241 239 237 240 241 233 240 237 231 225 233 232 235 276 297
359 353 351 350 341 335 330 328 326 325 324 319 314 312 310 310 309 307 304 299 295 288 284 278 277 273 264 258 253 249 245 245 243 242 237 235 236 237 235 232 238 234 229 226 229 226 243 266 282
355 356 344 347 338 337 333 324 323 323 319 316 315 314 314 313 314 313 311 306 301 294 286 281 276 272 269 260 255 250 249 245 241 240 238 232 232 233 236 232 236 231 233 227 228 229 240 256 265
354 340 338 336 335 331 330 319 321 320 318 317 317 316 316 315 314 314 313 310 306 301 294 285 278 271 269 265 260 253 250 246 244 239 237 234 232 228 231 231 233 229 230 230 229 235 236 242 255
341 340 338 332 333 326 321 315 317 320 319 316 318 319 317 315 315 316 313 311 307 303 297 291 282 273 268 269 261 259 253 255 242 244 236 233 232 227 228 232 230 227 229 231 230 233 239 244 237
346 340 334 331 332 326 323 318 318 319 321 322 322 323 322 320 320 319 317 314 310 305 298 292 286 277 269 265 263 258 255 254 247 241 237 232 231 226 226 231 230 227 229 229 229 231 230 241 235
346 340 338 337 334 329 325 321 322 325 328 331 329 327 330 328 324 320 317 317 311 305 299 292 286 280 272 266 261 263 261 253 253 243 240 242 230 227 229 229 229 231 230 230 229 225 236 251 231
349 347 343 338 337 337 337 335 342 341 347 346 342 336 331 327 323 317 315 311 310 305 298 291 284 279 273 267 262 259 261 262 250 247 241 236 242 234 229 229 232 230 230 230 225 227 232 240 240
351 354 347 346 346 350 355 344 347 4 357 351 346 339 335 330 325 321 316 308 304 303 301 292 284 277 272 267 262 256 254 253 258 248 245 242 238 238 230 231 230 231 234 234 227 230 237 239 232
354 353 352 355 357 357 11 3 10 1 359 352 346 344 336 332 326 321 317 313 308 308 299 295 285 277 269 265 261 256 253 253 256 259 246 240 239 232 230 232 229 231 235 232 233 230 232 236 236
359 359 3 15 11 3 17 10 5 6 352 340 339 338 333 327 324 319 315 312 311 308 295 292 286 278 269 264 259 256 252 251 249 262 243 237 238 237 236 238 236 234 234 230 230 232 236 237 241
7 6 2 2 3 1 8 4 354 353 352 353 346 336 336 329 330 327 321 317 315 310 304 289 279 277 270 262 258 255 253 250 249 253 255 241 243 242 242 235 232 234 228 232 233 235 241 239 236
12 15 9 359 360 352 355 1 356 351 358 359 348 345 341 337 331 323 324 321 318 312 308 295 277 273 269 261 257 255 253 250 248 247 249 243 242 247 245 242 238 227 231 237 237 237 231 231 242
12 12 15 4 1 0 359 350 349 7 355 351 349 345 343 341 336 328 322 326 320 315 305 293 280 268 267 261 255 253 252 250 246 243 249 243 244 245 239 250 247 236 215 228 242 237 243 230 244
17 15 8 11 1 2 360 352 352 351 350 349 345 345 347 346 344 342 333 330 326 317 300 290 282 267 264 256 252 251 251 251 249 241 240 253 246 247 243 251 249 245 242 244 246 253 243 239 246
11 10 15 11 8 2 358 357 0 359 356 353 350 352 350 350 350 349 345 344 341 307 295 286 281 266 260 251 250 248 249 251 246 238 240 244 252 251 250 252 256 258 259 256 259 261 241 232 248
11 10 14 5 4 358 353 354 7 0 356 356 354 356 356 354 357 358 358 309 300 296 293 289 272 258 254 248 246 247 248 245 240 237 240 245 251 259 267 258 265 254 262 262 262 270 236 256 239